Location: The Saddle
(36.8333°N, 80.3417°W)
Time: 04:23:55
(UTC-04:00)

Vanguard 3 - Pass Details

Date: 01 March 2024
Orbit: 510 x 3234 km, 33.3° (Epoch: 24 April)

Event Time Altitude Azimuth Distance (km) Brightness Sun altitude
Rises 22:42:11 0° 273° (W) 6,974 12.3 -50.9°
Reaches altitude 10° 22:46:40 10° 272° (W) 6,090 11.9 -51.5°
Enters shadow 23:01:44 59° 255° (WSW) 3,485 10.1 -53.6°
